Location: Chicago
(41.8500°N, 87.6500°W)
Time: 03:42:38
(UTC-05:00)

ISS - Visible Passes

Search period start: 21 October 2014 00:00
Search period end: 31 October 2014 00:00
Orbit: 413 x 416 km, 51.6° (Epoch: 20 October)

Date Brightness Start Highest point End Pass type
(mag) Time Alt. Az. Time Alt. Az. Time Alt. Az.
21 Oct -2.2 19:28:54 10° NW 19:31:57 31° NNE 19:31:58 31° NNE visible
22 Oct -1.8 18:39:58 10° NW 18:42:44 23° NNE 18:45:00 13° ENE visible
22 Oct -1.0 20:16:23 10° WNW 20:17:52 24° WNW 20:17:52 24° WNW visible
23 Oct -3.4 19:27:17 10° NW 19:30:37 67° NNE 19:30:57 61° ENE visible
24 Oct -2.7 18:38:14 10° NW 18:41:26 41° NNE 18:44:08 13° E visible
24 Oct -0.8 20:15:11 10° WNW 20:17:01 22° WSW 20:17:01 22° WSW visible
25 Oct -2.4 19:25:45 10° WNW 19:28:58 45° SW 19:30:19 28° SSE visible
26 Oct -3.2 18:36:28 10° WNW 18:39:49 82° SW 18:43:08 10° SE visible
27 Oct -0.5 19:24:41 10° W 19:26:57 17° SW 19:29:12 10° S visible
28 Oct -1.3 18:34:53 10° WNW 18:37:50 29° SW 18:40:47 10° SSE visible
30 Oct 0.2 18:34:27 10° WSW 18:35:31 11° SW 18:36:35 10° SSW visible
